Location: Fond Mahaut
(18.0707°N, 63.0465°W)
Time: 13:30:22
(UTC+00:00)

USA 81 - Pass Details

Date: 08 December 2019
Orbit: 785 x 788 km, 85.0° (Epoch: 06 January)

Event Time Altitude Azimuth Distance (km) Brightness Sun altitude
Rises 23:07:58 0° 169° (S) 3,267 7.4 -21.2°
Reaches altitude 10° 23:10:23 10° 163° (SSE) 2,340 6.5 -21.7°
Enters shadow 23:14:52 47° 110° (ESE) 1,038 4.3 -22.7°
